TimeEDT,TemperatureF,Dew PointF,Humidity,Sea Level PressureIn,VisibilityMPH,Wind Direction,Wind SpeedMPH,Gust SpeedMPH,PrecipitationIn,Events,Conditions,WindDirDegrees,DateUTC
12:53 AM,46.0,30.9,56,29.88,10.0,SW,4.6,-,0.00,Rain,Light Rain,220,2013-10-27 04:53:00
1:53 AM,46.0,30.0,54,29.87,10.0,SW,6.9,-,0.00,,Overcast,230,2013-10-27 05:53:00
2:53 AM,45.0,30.0,56,29.86,10.0,Variable,3.5,-,N/A,,Overcast,0,2013-10-27 06:53:00
3:53 AM,41.0,30.0,65,29.86,10.0,Calm,Calm,-,N/A,,Clear,0,2013-10-27 07:53:00
4:53 AM,34.0,28.9,82,29.87,10.0,Calm,Calm,-,N/A,,Clear,0,2013-10-27 08:53:00
5:53 AM,33.1,28.0,82,29.89,10.0,Calm,Calm,-,N/A,,Clear,0,2013-10-27 09:53:00
6:53 AM,30.9,28.0,89,29.90,10.0,Calm,Calm,-,N/A,,Clear,0,2013-10-27 10:53:00
7:53 AM,34.0,30.0,85,29.93,10.0,Calm,Calm,-,N/A,,Clear,0,2013-10-27 11:53:00
8:53 AM,44.1,33.1,65,29.95,10.0,Calm,Calm,-,N/A,,Clear,0,2013-10-27 12:53:00
9:53 AM,48.9,32.0,52,29.96,10.0,Variable,5.8,-,N/A,,Clear,0,2013-10-27 13:53:00
10:53 AM,51.1,30.9,46,29.97,10.0,West,10.4,18.4,0.00,,Partly Cloudy,260,2013-10-27 14:53:00
11:53 AM,53.1,30.9,43,29.98,10.0,WNW,9.2,-,0.00,Rain,Light Rain,290,2013-10-27 15:53:00
12:53 PM,51.1,30.0,44,29.97,10.0,NW,8.1,19.6,0.00,,Mostly Cloudy,320,2013-10-27 16:53:00
1:53 PM,55.0,30.0,38,29.96,10.0,Variable,5.8,-,0.00,,Mostly Cloudy,0,2013-10-27 17:53:00
2:53 PM,53.1,28.9,40,29.97,10.0,Variable,6.9,-,0.00,,Mostly Cloudy,0,2013-10-27 18:53:00
3:53 PM,55.0,28.9,37,29.97,10.0,WSW,8.1,-,0.00,Rain,Light Rain,250,2013-10-27 19:53:00
4:53 PM,53.1,28.9,40,29.99,10.0,Variable,3.5,-,0.00,,Overcast,0,2013-10-27 20:53:00
5:53 PM,51.1,28.9,43,30.01,10.0,West,3.5,-,0.00,,Overcast,280,2013-10-27 21:53:00
6:53 PM,50.0,30.0,46,30.04,10.0,Variable,3.5,-,N/A,,Mostly Cloudy,0,2013-10-27 22:53:00
7:53 PM,44.1,30.0,58,30.06,10.0,Calm,Calm,-,N/A,,Clear,0,2013-10-27 23:53:00
8:53 PM,41.0,30.9,67,30.08,10.0,Calm,Calm,-,N/A,,Mostly Cloudy,0,2013-10-28 00:53:00
9:53 PM,37.0,30.9,79,30.11,10.0,SSW,3.5,-,N/A,,Clear,200,2013-10-28 01:53:00
10:53 PM,34.0,30.0,85,30.13,10.0,SW,3.5,-,N/A,,Clear,230,2013-10-28 02:53:00
11:53 PM,33.1,28.9,85,30.14,10.0,Calm,Calm,-,N/A,,Clear,0,2013-10-28 03:53:00